Weather History for China Lake, CA

Change the Weather History Date:

Sunday, March 2, 2014

  Actual Average Record
Temperature  
Mean Temperature 48 °F -  
Max Temperature 59 °F 62 °F 80 °F (1999)
Min Temperature 37 °F 39 °F 25 °F (2007)
Degree Days  
Heating Degree Days 17    
Moisture  
Dew Point 42 °F    
Average Humidity 76    
Maximum Humidity 100    
Minimum Humidity 53    
Precipitation  
Precipitation 0.00 in - - ()
Sea Level Pressure  
Sea Level Pressure 30.05 in    
Wind  
Wind Speed 6 mph (South)    
Max Wind Speed 18 mph    
Max Gust Speed 23 mph    
Visibility 10 miles    
Events      
Averages and records for this station are not official NWS values.
T = Trace of Precipitation, MM = Missing Value Source: NWS Daily Summary

Daily Weather History Graph

Daily Weather History Graph

Search for Another Location

Airport:

Trip Planner

Search our weather history database for the weather conditions in past years. The results will help you decide how hot, cold, wet, or windy it might be!

Date:

Astronomy

Mar. 02, 2014 Rise Set
Actual Time 6:19 AM PST 5:46 PM PST
Civil Twilight 5:53 AM PST 6:12 PM PST
Nautical Twilight 5:24 AM PST 6:42 PM PST
Astronomical Twilight 4:54 AM PST 7:11 PM PST
Moon 6:57 AM PST (3/2) 7:42 PM PST (3/2)
Length of Visible Light 12h 18m
Length of Day
11h 27m
Waxing Crescent, 3% of the Moon is Illuminated
Mar 2
Waxing Crescent
Mar 8
First Quarter
Mar 16
Full
Mar 23
Last Quarter
Mar 30
New

Hourly Weather History & Observations

Time (PST) Temp. Windchill Dew Point Humidity Pressure Visibility Wind Dir Wind Speed Gust Speed Precip Events Conditions
12:56 AM 43.0 °F 40.3 °F 39.9 °F 89% 29.95 in 10.0 mi South 4.6 mph - N/A   Clear
1:56 AM 42.1 °F 39.2 °F 39.9 °F 92% 29.95 in 10.0 mi East 4.6 mph - N/A   Clear
2:56 AM 42.1 °F 36.6 °F 39.0 °F 89% 29.96 in 10.0 mi SSW 9.2 mph - N/A   Clear
3:56 AM 39.9 °F 37.8 °F 37.9 °F 93% 29.99 in 10.0 mi SSW 3.5 mph - N/A   Clear
4:56 AM 37.0 °F - 37.0 °F 100% 30.02 in 10.0 mi Calm Calm - N/A   Clear
5:56 AM 37.9 °F 35.5 °F 37.0 °F 97% 30.04 in 10.0 mi SE 3.5 mph - N/A   Clear
6:56 AM 39.9 °F - 39.0 °F 97% 30.04 in 10.0 mi Calm Calm - N/A   Clear
7:56 AM 44.1 °F 42.5 °F 41.0 °F 89% 30.09 in 10.0 mi SSW 3.5 mph - N/A   Mostly Cloudy
8:56 AM 48.0 °F - 42.1 °F 80% 30.11 in 10.0 mi SSW 5.8 mph - N/A   Clear
9:56 AM 51.1 °F - 43.0 °F 74% 30.10 in 10.0 mi Calm Calm - N/A   Clear
10:56 AM 53.1 °F - 42.1 °F 66% 30.11 in 10.0 mi East 4.6 mph - N/A   Clear
11:56 AM 54.0 °F - 43.0 °F 66% 30.09 in 10.0 mi Variable 4.6 mph - N/A   Clear
12:56 PM 57.0 °F - 44.1 °F 62% 30.06 in 10.0 mi SE 6.9 mph - N/A   Clear
1:56 PM 59.0 °F - 44.1 °F 58% 30.04 in 10.0 mi Variable 5.8 mph - N/A   Partly Cloudy
2:56 PM 59.0 °F - 45.0 °F 60% 30.03 in 10.0 mi South 18.4 mph 23.0 mph N/A   Scattered Clouds
3:56 PM 59.0 °F - 43.0 °F 55% 30.04 in 10.0 mi South 15.0 mph - N/A   Clear
4:56 PM 57.9 °F - 41.0 °F 53% 30.04 in 10.0 mi SSW 13.8 mph - N/A   Clear
5:56 PM 57.0 °F - 43.0 °F 59% 30.05 in 10.0 mi SSW 11.5 mph - N/A   Scattered Clouds
6:56 PM 55.0 °F - 42.1 °F 62% 30.07 in 10.0 mi SSW 8.1 mph - N/A   Partly Cloudy
7:56 PM 53.1 °F - 42.1 °F 66% 30.08 in 10.0 mi SSW 6.9 mph - N/A   Clear
8:56 PM 52.0 °F - 43.0 °F 71% 30.09 in 10.0 mi WSW 6.9 mph - N/A   Clear
9:56 PM 51.1 °F - 43.0 °F 74% 30.09 in 10.0 mi SE 3.5 mph - N/A   Clear
10:56 PM 48.9 °F - 43.0 °F 80% 30.11 in 10.0 mi SSE 6.9 mph - N/A   Clear
11:56 PM 46.0 °F - 43.0 °F 89% 30.12 in 10.0 mi Calm Calm - N/A   Clear